SCP
0 0 0 0 0 0 0 0 0 0 0 0 0 0 0 0 0 0 0 0 0 0 0 0 0 0 0 0 0 0 0 0 0 0 0 0 0 0 0 0 0 0 0
0 0 0 0 0 0 0 0 0 0 0 0 0 0 0 0 0 0 0 0 0 0 0 0 0 0 0 0 0 0 0 0 0 0 0 0 0 0 0 0 0 0 0
0 0 0 0 0 0 0 0 0 0 0 0 0 0 0 0 0 0 0 0 0 0 0 0 0 0 0 0 0 0 0 0 0 0 0 0 0 0 0 0 0 0 0
0 0 0 0 0 0 0 0 0 0 0 0 0 0 0 0 0 0 0 0 0 0 0 0 0 0 0 0 0 0 0 0 0 0 0 0 0 0 0 0 0 0 0
0 0 0 0 0 0 0 0 0 0 0 0 0 0 0 0 0 0 0 0 0 0 0 0 0 0 0 0 0 0 0 0 0 0 0 0 0 0 0 0 0 0 0
0 0 0 0 0 0 0 0 0 0 0 0 0 0 0 0 0 0 0 0 0 0 0 0 0 0 0 0 0 0 0 0 0 0 0 0 0 0 0 0 0 0 0
0 0 0 0 0 0 0 0 0 0 0 0 0 0 0 0 0 0 0 0 0 0 0 0 0 0 0 0 0 0 0 0 0 0 0 0 0 0 0 0 0 0 0
0 0 0 0 0 0 0 0 0 0 0 0 0 0 0 0 0 0 0 0 0 0 0 0 0 0 0 0 0 0 0 0 0 0 0 0 0 0 0 0 0 0 0
0 0 0 0 0 0 0 0 0 0 0 0 0 0 0 0 0 0 0 0 0 0 0 0 0 0 0 0 0 0 0 0 0 0 0 0 0 0 0 0 0 0 0
0 0 0 0 0 0 0 0 0 0 0 0 0 0 0 0 0 0 0 0 0 0 0 0 0 0 0 0 0 0 0 0 0 0 0 0 0 0 0 0 0 0 0
0 0 0 0 0 0 0 0 0 0 0 0 0 0 0 0 0 0 0 0 0 0 0 0 0 0 0 0 0 0 0 0 0 0 0 0 0 0 0 0 0 0 0
0 0 0 0 0 0 0 0 0 0 0 0 0 0 0 0 0 0 0 0 0 0 0 0 0 0 0 0 0 0 0 0 0 0 0 0 0 0 0 0 0 0 0
0 0 0 0 0 0 0 0 0 0 0 0 0 0 0 0 0 0 0 0 0 0 0 0 0 0 0 0 0 0 0 0 0 0 0 0 0 0 0 0 0 0 0
0 0 0 0 0 0 0 0 0 0 0 0 0 0 0 0 0 0 0 0 0 0 0 0 0 0 0 0 0 0 0 0 0 0 0 0 0 0 0 0 0 0 0
0 0 0 0 0 0 0 0 0 0 0 0 0 0 0 0 0 0 0 0 0 0 0 0 0 0 0 0 0 0 0 0 0 0 0 0 0 0 0 0 0 0 0
0 0 0 0 0 0 0 0 0 0 0 0 0 0 0 0 0 0 0 0 0 0 0 0 0 0 0 0 0 0 0 0 0 0 0 0 0 0 0 0 0 0 0
0 0 0 0 0 0 0 0 0 0 0 0 0 0 0 0 0 0 0 0 0 0 0 0 0 0 0 0 0 0 0 0 0 0 0 0 0 0 0 0 0 0 0
0 0 0 0 0 0 0 0 0 0 0 0 0 0 0 0 0 0 0 0 0 0 0 0 0 0 0 0 0 0 0 0 0 0 0 0 0 0 0 0 0 0 0
0 0 0 0 0 0 0 0 0 0 0 0 0 0 0 0 0 0 0 0 0 0 0 0 0 0 0 0 0 0 0 0 0 0 0 0 0 0 0 0 0 0 0
0 0 0 0 0 0 0 0 0 0 0 0 0 0 0 0 0 0 0 0 0 0 0 0 0 0 0 0 0 0 0 0 0 0 0 0 0 0 0 0 0 0 0
0 0 0 0 0 0 0 0 0 0 0 0 0 0 0 0 0 0 0 0 0 0 0 0 0 0 0 0 0 0 0 0 0 0 0 0 0 0 0 0 0 0 0
0 0 0 0 0 0 0 0 0 0 0 0 0 0 0 0 0 0 0 0 0 0 0 0 0 0 0 0 0 0 0 0 0 0 0 0 0 0 0 0 0 0 0
0 0 0 0 0 0 0 0 0 0 0 0 0 0 0 0 0 0 0 0 0 0 0 0 0 0 0 0 0 0 0 0 0 0 0 0 0 0 0 0 0 0 0
0 0 0 0 0 0 0 0 0 0 0 0 0 0 0 0 0 0 0 0 0 0 0 0 0 0 0 0 0 0 0 0 0 0 0 0 0 0 0 0 0 0 0
0 0 0 0 0 0 0 0 0 0 0 0 0 0 0 0 0 0 0 0 0 0 0 0 0 0 0 0 0 0 0 0 0 0 0 0 0 0 0 0 0 0 0
0 0 0 0 0 0 0 0 0 0 0 0 0 0 0 0 0 0 0 0 0 0 0 0 0 0 0 0 0 0 0 0 0 0 0 0 0 0 0 0 0 0 0
Wind_Speed
1 2 2 2 3 4 4 4 5 5 6 6 5 5 4 3 3 2 2 2 2 1 1 1 1 1 0 0 0 0 0 1 2 2 2 2 2 3 2 2 3 4 4
0 1 2 2 3 3 4 4 4 5 4 4 5 4 4 3 3 2 2 2 2 2 2 2 1 1 1 1 1 1 0 0 1 2 2 2 2 2 2 2 3 3 3
0 1 2 2 3 4 4 4 5 5 5 4 4 4 4 3 3 2 2 2 2 2 2 2 2 2 2 1 1 1 0 1 0 2 2 2 2 2 2 2 3 3 3
1 2 4 4 4 4 4 4 5 5 5 5 4 4 4 3 3 2 2 3 2 2 2 2 2 2 2 2 1 1 0 0 1 2 2 2 2 2 2 2 1 2 2
3 3 4 4 4 4 5 5 5 5 5 5 5 4 3 3 3 3 3 3 3 3 3 2 2 3 3 3 2 1 1 1 1 1 2 2 2 2 2 1 1 1 1
4 5 4 4 4 5 5 5 5 5 5 5 5 5 4 3 5 6 5 4 4 4 4 3 2 2 3 4 4 3 2 2 2 2 1 2 2 2 2 2 2 1 0
5 5 4 4 5 5 5 6 6 6 5 5 5 5 4 4 7 7 7 4 4 4 4 4 2 2 4 3 4 6 5 5 2 2 2 2 3 3 4 2 2 2 1
5 5 4 4 5 5 6 6 6 5 5 5 5 5 4 5 8 8 8 4 4 4 4 4 4 3 3 4 3 3 3 3 3 2 2 2 2 3 3 3 3 2 1
5 5 4 4 5 6 7 7 5 5 5 5 5 6 5 5 9 8 8 4 3 3 3 4 4 4 5 6 4 3 2 1 3 5 5 4 5 6 5 4 3 2 1
7 6 5 5 6 7 7 6 5 5 5 6 5 5 6 5 9 10 10 4 4 3 3 3 6 6 7 7 5 4 3 2 1 2 3 4 4 3 4 3 3 3 2
7 6 5 5 6 6 6 5 5 5 5 6 6 5 6 7 9 12 12 5 5 4 4 3 4 8 9 8 7 5 5 4 3 3 2 2 2 2 2 2 2 3 3
7 6 5 4 4 4 5 5 6 7 7 6 5 5 4 5 8 10 14 12 9 5 5 4 5 9 9 9 6 7 8 6 3 3 2 2 2 2 1 2 2 2 2
7 6 5 4 4 4 6 7 6 7 6 6 6 6 5 5 6 13 14 14 14 7 5 8 9 11 10 6 8 9 6 4 3 3 3 3 2 2 2 2 2 2 1
7 6 5 4 4 5 5 6 7 7 7 7 7 7 5 5 5 5 5 7 11 9 6 8 11 11 8 7 6 5 4 4 4 3 3 3 3 3 2 2 2 2 1
7 6 5 5 5 5 6 6 7 8 8 8 7 7 7 7 10 14 9 7 6 6 5 3 3 3 4 3 3 3 3 3 4 3 3 3 3 3 3 3 3 2 2
7 6 5 4 4 4 5 5 10 10 13 15 13 10 9 11 11 15 17 17 16 15 9 4 5 5 6 6 5 5 4 5 4 4 4 4 4 4 3 3 3 3 3
8 7 6 5 5 5 5 5 5 8 13 15 16 17 15 13 14 14 15 16 17 17 9 6 6 7 6 6 6 6 5 5 5 5 5 5 4 4 3 4 4 3 3
8 8 7 6 5 5 5 5 5 5 5 6 11 17 18 17 16 15 15 13 9 11 7 7 8 7 7 7 6 6 5 5 5 5 5 5 5 5 4 4 5 5 4
8 6 6 6 5 5 5 5 5 6 6 5 3 7 14 15 16 17 15 8 8 8 8 7 7 7 7 7 6 6 6 6 6 6 6 6 6 5 5 5 5 8 6
7 10 9 6 5 5 5 5 5 5 6 5 6 5 5 7 6 8 9 7 8 8 8 8 8 8 7 7 7 6 6 6 7 7 6 6 6 6 6 7 6 5 6
6 7 10 7 5 5 5 6 5 5 5 5 5 7 10 7 7 8 8 8 8 9 9 8 8 8 8 7 7 8 8 7 7 7 7 6 7 6 6 6 6 6 5
6 6 6 6 6 5 6 5 5 5 6 6 5 6 13 8 6 6 7 7 8 7 7 7 7 7 7 8 8 8 8 8 8 7 7 7 7 7 6 6 6 5 5
6 6 6 6 6 8 7 5 5 5 5 5 5 5 5 6 6 7 7 6 6 6 6 6 7 6 6 7 7 8 8 8 8 8 8 8 7 7 7 7 8 7 6
6 6 6 6 6 6 6 6 5 5 5 5 5 5 5 6 6 7 6 5 5 5 5 6 7 8 10 8 7 7 7 7 7 8 10 8 8 7 7 6 7 7 7
6 6 6 6 6 5 5 6 6 5 5 5 4 4 4 5 5 5 5 5 6 5 6 6 5 6 9 10 8 7 10 13 11 7 8 7 8 8 7 7 7 6 6
6 6 6 5 5 5 5 5 5 5 5 4 4 4 4 4 4 3 4 4 4 4 5 4 5 6 6 6 8 10 12 13 14 13 8 7 8 7 8 6 8 7 7
Wind_Direction
44 76 97 104 114 120 124 129 134 133 136 138 139 138 133 126 121 120 128 142 157 162 151 156 154 147 137 20 7 350 328 246 207 130 112 121 123 119 91 69 58 45 23
1 106 127 130 127 128 132 131 130 129 127 131 132 130 130 126 122 129 144 157 171 172 167 158 160 139 118 64 57 55 21 324 179 161 135 131 124 129 111 85 57 46 30
263 174 173 168 161 160 155 145 138 135 130 131 133 137 134 131 126 128 151 160 165 171 169 169 169 158 151 123 98 89 14 352 60 142 134 121 110 111 101 80 64 36 30
260 215 210 202 189 177 164 155 150 147 146 146 144 142 141 141 142 146 153 148 144 140 144 153 159 166 166 157 142 128 108 76 82 119 127 122 114 103 107 106 83 38 23
276 245 233 216 191 175 168 163 156 154 155 151 144 142 147 151 162 164 161 157 153 147 138 135 144 154 164 158 149 158 137 134 133 138 139 128 132 133 140 128 124 60 28
270 257 240 208 192 187 179 167 159 155 153 153 156 157 167 178 186 183 170 165 166 165 159 142 129 127 139 131 117 116 126 148 170 157 154 162 158 146 131 130 125 115 302
272 262 239 211 202 195 180 171 173 169 164 166 169 170 181 198 198 194 187 165 168 173 169 162 156 137 109 92 90 74 58 58 99 156 167 178 167 170 148 135 142 148 178
284 270 247 219 209 192 182 186 182 170 173 177 180 183 185 203 203 199 188 159 162 172 174 169 161 151 151 140 123 99 70 43 59 88 137 156 155 151 150 147 145 122 96
290 278 256 226 211 197 196 194 184 175 180 183 181 183 188 205 207 199 170 147 164 174 174 171 169 177 195 171 147 140 114 46 72 109 118 127 138 146 141 114 119 111 138
295 285 264 231 214 209 205 194 182 180 186 181 185 187 189 200 209 203 176 159 170 175 179 191 199 198 210 188 162 164 177 188 128 102 82 73 66 95 132 140 147 140 154
298 287 267 238 224 215 201 189 180 180 178 184 191 195 195 202 212 209 192 171 179 181 189 196 212 215 212 203 180 180 201 180 159 145 129 113 93 87 92 117 137 147 156
299 288 272 252 232 209 194 190 184 181 185 191 195 201 205 207 210 216 211 199 190 183 193 194 207 216 216 213 194 197 209 177 147 152 164 180 182 184 163 140 135 136 151
302 292 280 261 235 209 199 196 191 190 195 198 199 206 207 201 213 219 221 214 206 193 198 205 210 218 218 217 209 205 197 159 159 178 196 202 194 178 149 133 121 124 135
301 292 279 257 239 219 210 204 201 199 202 202 204 209 205 197 201 208 213 220 216 207 199 215 216 219 210 202 210 210 175 172 178 191 197 189 156 153 166 163 159 152 163
300 292 278 258 243 230 222 218 214 213 208 204 206 202 201 210 212 205 196 202 195 189 165 166 175 179 188 182 186 188 181 185 197 181 183 181 181 179 180 166 163 159 179
300 295 282 266 252 241 235 238 229 225 225 223 216 207 214 219 215 212 212 212 209 201 183 181 192 197 201 201 202 201 198 199 197 190 191 193 193 191 187 170 169 179 200
297 295 287 272 260 248 238 235 242 233 229 230 227 223 221 220 220 216 214 213 211 204 200 197 201 203 206 203 203 203 205 201 192 193 196 196 194 192 188 191 190 194 209
296 294 290 277 267 258 246 239 235 232 229 228 227 228 228 226 222 218 214 205 208 206 203 204 207 206 205 205 206 207 206 196 192 197 196 195 191 188 192 198 197 201 207
296 291 290 285 276 270 261 250 242 234 233 228 214 222 225 226 223 219 210 202 200 205 206 209 207 204 204 204 205 204 202 201 197 194 198 196 193 191 201 204 203 218 211
290 291 293 290 283 274 266 257 248 241 235 229 224 218 202 203 209 208 206 199 202 207 208 210 209 207 204 203 201 200 203 205 201 201 200 197 193 193 202 204 202 205 209
286 290 293 290 282 278 273 265 256 247 241 234 229 218 206 205 209 207 206 206 207 208 207 208 207 205 204 201 199 202 204 207 204 201 199 196 192 196 200 201 203 204 204
279 280 283 285 284 280 278 272 265 256 247 243 239 229 226 218 211 211 211 212 211 211 205 202 205 205 202 200 200 202 206 209 205 200 198 194 193 196 194 198 200 199 199
273 273 276 278 279 284 285 277 271 263 254 245 237 228 223 217 213 213 214 212 207 206 201 200 205 206 202 200 199 200 206 209 203 194 193 193 193 194 193 196 197 194 201
270 269 270 273 274 275 277 278 274 269 264 253 241 232 229 224 217 214 211 206 201 201 198 199 204 207 203 200 201 203 207 203 192 192 192 190 190 191 190 193 196 199 199
270 268 267 265 266 269 273 276 274 271 269 264 252 239 230 225 221 214 205 197 194 196 197 197 200 204 206 204 201 200 207 206 198 187 184 187 188 188 188 190 193 193 197
269 267 266 266 264 263 266 271 275 274 270 266 259 248 233 223 216 207 196 190 189 191 192 193 197 197 199 204 205 205 209 211 208 199 184 183 185 188 187 191 192 194 195